SCP
0 0 0 0 0 0 0 0 0 0 0 0 0 0 0 0 0 0 0 0 0 0 0 0 0 0 0 0 0 0 0 0 0 0 0 0 0 0
0 0 0 0 0 0 0 0 0 0 0 0 0 0 0 0 0 0 0 0 0 0 0 0 0 0 0 0 0 0 0 0 0 0 0 0 0 0
0 0 0 0 0 0 0 0 0 0 0 0 0 0 0 0 0 0 0 0 0 0 0 0 0 0 0 0 0 0 0 0 0 0 0 0 0 0
0 0 0 0 0 0 0 0 0 0 0 0 0 0 0 0 0 0 0 0 0 0 0 0 0 0 0 0 0 0 0 0 0 0 0 0 0 0
1 1 1 0 0 0 0 0 0 0 0 0 0 0 0 0 0 0 0 0 0 0 0 0 0 0 0 0 0 0 0 0 0 0 0 0 0 0
1 1 1 1 0 0 0 0 0 0 0 0 0 0 0 0 0 0 0 0 0 0 0 0 0 0 0 0 0 0 0 0 0 0 0 0 0 0
1 1 1 1 1 0 0 0 0 0 0 0 0 0 0 0 0 0 0 0 0 0 0 0 0 0 0 0 0 0 0 0 0 0 0 0 0 0
1 1 1 1 0 0 0 0 0 0 0 0 0 0 0 0 0 0 0 0 0 0 0 0 0 0 0 0 0 0 0 0 0 0 0 0 0 0
1 1 1 1 0 0 0 0 0 0 0 0 0 0 0 0 0 0 0 0 0 0 0 0 0 0 0 0 0 0 0 0 0 0 0 0 0 0
1 1 1 1 0 0 0 0 0 0 0 0 0 0 0 0 0 0 0 0 0 0 0 0 0 0 0 0 0 0 0 0 0 0 0 0 0 0
0 0 0 0 0 0 0 0 0 0 0 0 0 0 0 0 0 0 0 0 0 0 0 0 0 0 0 0 0 0 0 0 0 0 0 0 0 0
0 0 0 0 0 0 0 0 0 0 0 0 0 0 0 0 0 0 0 0 0 0 0 0 0 0 0 0 0 0 0 0 0 0 0 0 0 0
0 0 0 0 0 0 0 0 0 0 0 0 0 0 0 0 0 0 0 0 0 0 0 0 0 0 0 0 0 0 0 0 0 0 0 0 0 0
0 0 0 0 0 0 0 0 0 0 0 0 0 0 0 0 0 0 0 0 0 0 0 0 0 0 0 0 0 0 0 0 0 0 0 0 0 0
0 0 0 0 0 0 0 0 0 0 0 0 0 0 0 0 0 0 0 0 0 0 0 0 0 0 0 0 0 0 0 0 0 0 0 0 0 0
0 0 0 0 0 0 0 0 0 0 0 0 0 0 0 0 0 0 0 0 0 0 0 0 0 0 0 0 0 0 0 0 0 0 0 0 0 0
0 0 0 0 0 0 0 0 0 0 0 0 0 0 0 0 0 0 0 0 0 0 0 0 0 0 0 0 0 0 0 0 0 0 0 0 0 0
0 0 0 0 0 0 0 0 0 0 0 0 0 0 0 0 0 0 0 0 0 0 0 0 0 0 0 0 0 0 0 0 0 0 0 0 0 0
0 0 0 0 0 0 0 0 0 0 0 0 0 0 0 0 0 0 0 0 0 0 0 0 0 0 0 0 0 0 0 0 0 0 0 0 0 0
0 0 0 0 0 0 0 0 0 0 0 0 0 0 0 0 0 0 0 0 0 0 0 0 0 0 0 0 0 0 0 0 0 0 0 0 0 0
0 0 0 0 0 0 0 0 0 0 0 0 0 0 0 0 0 0 0 0 0 0 0 0 0 0 0 0 0 0 0 0 0 0 0 0 0 0
0 0 0 0 0 0 0 0 0 0 0 0 0 0 0 0 0 0 0 0 0 0 0 0 0 0 0 0 0 0 0 0 0 0 0 0 0 0
0 0 0 0 0 0 0 0 0 0 0 0 0 0 0 0 0 0 0 0 0 0 0 0 0 0 0 0 0 0 0 0 0 0 0 0 0 0
Wind_Speed
8 8 6 5 4 4 4 4 5 3 4 3 2 3 3 3 3 2 2 5 5 6 6 6 7 8 9 9 10 11 12 13 14 15 16 17 18 19
7 8 7 5 5 4 4 4 4 5 4 3 2 2 3 2 3 2 3 4 5 6 6 6 7 7 8 8 9 10 11 12 13 14 16 17 18 19
9 10 10 8 6 5 4 4 4 4 4 2 1 1 2 2 1 1 2 2 2 6 6 6 6 7 7 8 9 10 11 12 13 14 15 16 17 18
12 11 10 8 8 6 6 6 5 4 4 4 2 1 2 3 2 1 1 1 2 5 5 6 6 6 7 7 7 8 10 11 12 13 14 15 17 18
13 13 11 10 10 7 7 6 5 4 4 3 3 2 1 1 1 1 2 1 2 3 4 5 6 7 7 7 6 7 9 10 11 12 13 15 16 17
11 12 12 12 12 10 8 8 6 5 4 3 3 2 1 1 1 1 1 1 2 1 2 4 5 6 6 7 7 7 8 10 11 12 13 14 15 16
10 11 11 12 13 11 8 8 8 6 5 4 4 2 2 2 2 2 2 2 2 1 2 2 2 2 3 5 6 7 8 9 10 12 13 14 15 16
11 10 10 12 13 14 13 12 12 10 8 6 5 5 5 4 3 2 1 0 2 1 1 3 1 2 2 2 5 7 8 9 10 11 12 14 14 15
11 10 8 9 12 10 11 12 11 11 11 8 7 6 5 5 4 3 2 2 3 1 0 3 2 2 2 3 7 7 8 9 10 11 12 13 14 15
10 11 11 10 10 11 9 8 6 6 7 6 6 5 4 5 5 5 4 1 1 0 1 1 2 3 3 3 5 6 9 10 11 12 13 13 14 14
9 9 11 11 15 16 11 9 7 4 5 7 6 6 6 6 6 4 3 2 1 1 1 0 2 3 3 2 3 8 9 10 12 13 13 14 14 13
7 9 13 13 17 18 13 11 10 7 6 6 5 4 4 5 6 5 5 3 1 2 1 1 1 1 3 3 2 3 4 9 12 13 14 14 15 7
8 8 9 16 18 19 14 10 11 10 8 7 5 4 3 3 3 3 3 3 3 2 2 1 1 0 1 3 3 2 2 4 5 6 10 14 15 11
9 7 9 17 18 18 13 12 14 12 6 6 5 4 4 4 3 3 3 2 2 3 3 2 2 2 1 2 4 4 4 3 3 3 4 10 12 15
7 11 13 17 16 13 14 15 13 8 7 6 6 5 4 4 4 3 3 2 2 1 2 2 2 2 2 2 3 3 4 4 3 3 4 5 5 6
7 10 14 15 11 10 11 9 6 6 7 6 5 4 4 4 4 3 3 2 1 0 1 1 2 2 2 3 3 4 3 4 4 5 5 5 4 4
8 6 6 7 7 6 5 5 5 6 5 5 5 5 5 4 3 3 2 2 2 1 0 0 1 1 3 3 3 4 4 4 4 4 5 6 5 4
10 7 7 7 8 8 8 6 5 6 5 5 6 5 5 5 4 3 3 2 2 2 1 1 0 1 2 3 4 3 3 3 4 4 4 5 7 5
7 7 8 8 7 7 7 7 6 6 6 6 6 6 5 5 5 4 3 2 2 2 1 1 1 1 1 3 4 3 2 3 4 4 4 4 6 7
6 8 8 7 7 7 7 7 6 7 6 6 6 6 6 5 5 4 4 3 3 2 1 1 1 1 2 2 2 3 5 4 3 5 5 5 5 9
7 6 7 7 7 7 7 7 7 7 7 6 6 6 6 6 5 4 4 5 3 2 2 2 2 1 0 0 2 3 4 6 6 5 5 5 5 4
6 6 7 7 7 7 7 7 7 7 7 6 6 6 6 5 6 5 4 4 3 2 2 1 0 0 1 0 2 4 5 6 7 9 8 6 3 4
7 7 7 7 8 7 7 8 8 7 7 7 7 6 6 5 5 5 4 4 3 3 2 1 1 0 0 1 1 3 5 5 5 5 5 8 10 11
Wind_Direction
193 191 191 191 189 187 178 169 168 199 231 217 195 191 175 164 186 188 215 250 264 272 282 294 301 307 311 314 318 321 324 326 326 325 324 326 327 328
189 190 194 189 187 185 184 184 178 179 211 217 192 174 164 166 190 187 216 255 262 270 277 290 298 305 307 309 314 319 324 325 325 326 326 327 327 327
191 192 196 187 183 186 182 183 186 177 204 230 196 156 155 178 189 205 218 224 249 268 276 288 295 303 305 309 314 320 325 326 326 326 327 328 328 327
193 191 194 187 188 185 183 188 191 187 186 210 217 188 192 191 180 209 250 251 246 266 277 288 296 301 305 309 316 324 326 326 327 328 329 329 328 328
192 192 191 186 192 189 184 187 190 186 181 186 206 194 193 177 161 251 261 262 272 270 279 290 294 301 304 306 315 321 325 326 327 330 330 330 329 328
194 192 190 191 193 187 186 188 181 180 179 181 196 195 195 184 158 219 282 278 283 289 313 308 300 305 301 305 312 319 323 324 325 328 330 330 328 327
192 192 191 189 187 185 185 183 178 181 180 186 195 189 194 181 203 194 227 290 295 294 315 298 295 289 295 302 308 314 321 323 326 329 329 330 329 328
190 188 186 185 184 183 182 180 179 183 189 191 196 201 207 197 179 177 176 219 280 289 322 291 287 284 282 274 305 313 317 322 326 328 329 329 329 329
187 182 180 181 178 181 181 177 182 187 186 186 190 201 194 190 173 177 186 197 229 247 12 282 292 288 292 304 308 313 324 328 329 329 330 330 331 331
186 182 179 177 179 173 168 171 179 188 192 189 190 188 178 172 174 176 178 176 293 285 114 262 292 291 305 297 305 324 330 330 331 333 334 333 332 332
183 179 177 179 175 167 167 170 171 181 175 165 159 151 146 144 140 128 130 126 230 255 93 189 295 308 304 295 315 328 330 332 334 335 335 335 333 334
182 183 181 178 173 171 176 175 178 180 160 150 143 134 137 144 146 155 162 161 168 227 204 143 291 345 314 301 312 322 327 330 333 333 334 334 334 334
184 186 183 176 174 176 177 183 181 164 161 157 154 150 142 141 150 152 157 162 170 205 194 146 180 253 259 297 302 307 321 321 321 323 331 333 332 334
186 181 175 172 173 174 178 175 164 155 151 152 158 167 170 169 164 153 143 139 154 182 185 163 180 199 239 289 290 308 315 308 312 314 318 326 328 328
177 169 164 165 166 172 175 167 161 160 157 161 172 180 175 162 145 134 122 111 95 133 171 176 183 205 209 250 281 300 312 309 312 319 318 317 313 318
158 154 154 156 158 160 161 166 168 167 164 167 166 155 144 143 145 144 145 140 126 288 235 193 199 204 238 253 265 283 292 298 315 318 314 308 304 304
147 141 148 154 164 162 156 155 156 156 158 152 149 150 151 148 147 142 143 144 152 177 251 292 264 244 244 241 260 271 282 291 298 311 318 315 308 303
150 160 167 171 174 169 164 161 161 163 160 155 155 158 158 155 150 147 148 153 170 182 191 202 13 354 336 291 236 256 279 290 304 310 312 315 313 314
162 171 174 176 173 168 165 165 166 161 156 158 159 158 153 151 153 159 161 161 173 178 191 181 157 130 341 312 300 249 282 308 314 312 309 305 302 306
176 174 174 170 167 166 165 162 158 154 156 159 156 154 153 154 157 164 166 167 170 167 175 185 185 185 211 253 284 293 296 299 304 309 310 305 291 295
175 172 167 164 162 161 160 160 159 158 158 156 155 153 154 153 157 161 163 169 161 163 182 216 239 275 177 97 314 307 301 304 307 299 307 313 315 317
167 165 163 162 158 158 159 157 155 154 155 154 153 152 154 155 157 160 160 160 163 167 176 187 159 83 96 277 304 307 312 318 319 318 308 295 305 312
163 160 160 160 156 154 156 156 156 157 158 155 151 152 153 152 152 154 156 152 146 146 140 134 96 78 267 272 297 306 312 319 325 332 323 321 318 308